Regional Weather Roundup
Issued by NWS

Home | Current Version | Previous Version | Graphics & Text | Print | Product List | Glossary Off
Versions: 1 2 3 4 5 6 7 8 9 10 11 12 13 14 15 16 17 18 19 20 21 22 23 24 25 26 27 28 29 30 31 32 33 34 35 36 37 38 39 40 41 42 43 44 45 46 47 48 49 50

000
ASUS43 KMKX 311959
RWRWI

WISCONSIN REGIONAL WEATHER ROUNDUP
NATIONAL WEATHER SERVICE MILWAUKEE/SULLIVAN WI
200 PM CST SAT JAN 31 2015

NOTE: "FAIR" INDICATES FEW OR NO CLOUDS BELOW 12,000 FEET WITH NO
SIGNIFICANT WEATHER AND/OR OBSTRUCTIONS TO VISIBILITY.

WIZ001-002-006>008-014>016-023>028-312100-
NORTHWEST WISCONSIN

CITY           SKY/WX    TMP DP  RH WIND       PRES   REMARKS
SUPERIOR ARPT  SUNNY     23   6  48 N8        30.26F WCI  14
ASHLAND        SUNNY     20   9  62 NE14      30.26R WCI   7
HAYWARD        PTSUNNY   23  12  62 NE9       30.20S WCI  13
SIREN          SUNNY     28  13  54 NE12      30.21S WCI  17
CUMBERLAND     MOSUNNY   27  14  59 NE8       30.18F WCI  18
RICE LAKE      CLOUDY    26  17  69 N8        30.20S WCI  18
CHETEK         CLOUDY    27  18  69 NW6       30.18F WCI  20
LADYSMITH      CLOUDY    26  17  68 NE10      30.19R WCI  17
EAU CLAIRE     CLOUDY    28  18  66 N6        30.18S WCI  22
MENOMONIE      CLOUDY    29  20  69 N8        30.19S WCI  21
NEW RICHMOND   CLOUDY    27  19  71 N10       30.19F WCI  17
OSCEOLA        CLOUDY    28  19  68 N7        30.23F WCI  21
$$

WIZ003>005-009-010-017-018-312100-
NORTH CENTRAL WISCONSIN

CITY           SKY/WX    TMP DP  RH WIND       PRES   REMARKS
MANITOWISH WTR FLURRIES  19  13  76 N10       30.14R WCI   7
ARBOR VITAE    LGT SNOW  22  15  74 N10       30.14R WCI  11
WOODRUFF       LGT SNOW  22  15  74 N10       30.14R WCI  11
RHINELANDER    CLOUDY    22  14  71 N7        30.13S WCI  13
EAGLE RIVER    FLURRIES  21  12  68 NW10G17   30.13R WCI  10
LAND O LAKES   LGT SNOW  20  14  76 N9        30.13S WCI   9
PHILLIPS       CLOUDY    22  14  73 N6        30.16R WCI  14
TOMAHAWK       CLOUDY    23  16  74 NW9       30.15R WCI  13
MEDFORD        CLOUDY    26  18  73 N6        30.14R WCI  19
MERRILL        CLOUDY    26  18  73 N8        30.14R WCI  17
$$

WIZ029-030-035-036-043>047-312100-
CENTRAL WISCONSIN

CITY           SKY/WX    TMP DP  RH WIND       PRES   REMARKS
WAUSAU         CLOUDY    26  18  71 N7        30.14R WCI  18
MOSINEE        NOT AVBL
MARSHFIELD     CLOUDY    28  19  69 N7        30.15R WCI  21
STEVENS POINT  CLOUDY    26  18  72 NW7       30.15S WCI  18
WAUPACA        CLOUDY    30  19  63 CALM      30.16S
WAUTOMA        NOT AVBL
WISC RAPIDS    CLOUDY    28  18  66 N5        30.17R WCI  23
CAMP DOUGLAS   NOT AVBL
$$

WIZ011>013-019>022-031-037>040-048>050-312100-
NORTHEAST WISCONSIN

CITY           SKY/WX    TMP DP  RH WIND       PRES   REMARKS
ANTIGO         CLOUDY    24  19  80 N8        30.12S WCI  15
SHAWANO        CLOUDY    31  20  63 N5        30.16R WCI  26
OCONTO         CLOUDY    28  19  67 MISG      30.16S
STURGEON BAY   CLOUDY    27  18  69 N7        30.18R WCI  19
GREEN BAY      CLOUDY    28  19  69 NW5       30.17S WCI  23
MANITOWOC      NOT AVBL
APPLETON       CLOUDY    27  18  69 N6        30.15F WCI  20
CLINTONVILLE   CLOUDY    30  19  64 CALM      30.15S
OSHKOSH        CLOUDY    28  19  69 NW3       30.16S
$$

WIZ032>034-041-042-053>061-312100-
SOUTHWEST WISCONSIN

CITY           SKY/WX    TMP DP  RH WIND       PRES   REMARKS
LA CROSSE      CLOUDY    32  22  66 NW6       30.17S WCI  26
SPARTA         CLOUDY    30  23  74 N3        30.17F
VIROQUA        CLOUDY    31  24  77 N6        30.12F WCI  25
BOSCOBEL       CLOUDY    35  23  61 E3        30.15F
PRAIRIE DU CHI CLOUDY    33  22  63 CALM      30.15S
PLATTEVILLE    CLOUDY    32  25  74 CALM      30.13F
$$

WIZ056-057-062-063-064-067-068-312100-
SOUTH CENTRAL WISCONSIN

CITY           SKY/WX    TMP DP  RH WIND       PRES   REMARKS
REEDSBURG      CLOUDY    31  22  71 NE5       30.14S WCI  26
BARABOO/DELLS  CLOUDY    31  21  67 N5        30.14S WCI  26
LONE ROCK      NOT AVBL
MINERAL POINT  CLOUDY    34  27  75 CALM      30.12F
MADISON        CLOUDY    34  22  61 NE5       30.14S WCI  30
MIDDLETON      CLOUDY    35  22  61 CALM      30.15R
WATERTOWN      CLOUDY    32  22  67 CALM      30.14S
MONROE         CLOUDY    32  27  80 CALM      30.12F
JANESVILLE     MOSUNNY   36  23  60 CALM      30.14F
$$

WIZ051-052-058>065-066-070>072-312100-
SOUTHEAST WISCONSIN

CITY           SKY/WX    TMP DP  RH WIND       PRES   REMARKS
MILWAUKEE      PTSUNNY   36  20  52 VRB5      30.15F WCI  32
WAUKESHA       CLOUDY    32  19  59 NW5       30.15F WCI  27
MILWAUKEE/TIMM CLOUDY    34  19  55 N6        30.16F WCI  29
RACINE         MOSUNNY   35  20  54 W5        30.17S WCI  31
BURLINGTON     PTSUNNY   32  21  63 W3        30.15F
KENOSHA        PTSUNNY   36  22  56 NW7       30.16S WCI  30
FOND DU LAC    CLOUDY    28  19  69 NE8       30.16S WCI  20
SHEBOYGAN      CLOUDY    30  19  63 N8        30.16S WCI  22
WEST BEND      CLOUDY    32  19  59 CALM      30.15S
JUNEAU         CLOUDY    30  21  69 CALM      30.16S
$$

LSZ147-162-312100-
LAKE SUPERIOR

STATION/POSITION TIME  TEMP    WIND        PRES    WAVE
                       AIR SEA DIR/SP/G            HT/PER
                 (UTC) (F)     (DEG/KT/KT) (MB)    (FT/S)
DEVILS ISLAND    1900   17     360/ 13/ 17 1026.7R
PORT WING        1900   21     360/ 10/ 13 1025.4S
SAXON HARBOR     1940   20     360/ 12/ 16 1024.4S
$$

LMZ867-665-643>646-312100-
LAKE MICHIGAN

STATION/POSITION TIME  TEMP    WIND        PRES    WAVE
                       AIR SEA DIR/SP/G            HT/PER
                 (UTC) (F)     (DEG/KT/KT) (MB)    (FT/S)
NORTHPORT PIER   1922   26     290/  5/ 10 1021.0S
SISTER BAY       1913   29     270/  6/  6   N/A
KEWAUNEE LAKESHO 1900   27     320/  4/  9 1020.6F
SHEBOYGAN LAKESH 1900   30     330/  8/  9 1022.6F
PORT WASHINGTON  1940   33     320/  3/  6 1022.0F
MILWAUKEE LAKESH 1900   35      10/  3/  5   N/A
KENOSHA   LAKESH 1900   35     320/  6/ 10 1021.3F
$$

TC  - TEMPERATURE IN CELSIUS
VSB - VISIBILITY IN STATUTE MILES
WCI - WIND CHILL INDEX
HX  - HEAT INDEX



USA.gov is the U.S. government's official web portal to all federal, state and local government web resources and services.